TimeCET,TemperatureF,Dew PointF,Humidity,Sea Level PressureIn,VisibilityMPH,Wind Direction,Wind SpeedMPH,Gust SpeedMPH,PrecipitationIn,Events,Conditions,WindDirDegrees,DateUTC
12:25 AM,48.2,46.4,93,29.47,5.6,SSW,10.4,-,N/A,Rain,Light Rain,210,2012-12-24 23:25:00
12:55 AM,48.2,46.4,93,29.47,6.2,SSW,10.4,-,N/A,Rain,Light Rain,210,2012-12-24 23:55:00
1:00 AM,48,47,94,29.47,7,SSW,8.9,,,Rain,Drizzle,210,2012-12-25 00:00:00
1:25 AM,48.2,46.4,93,29.44,6.2,SSW,9.2,-,N/A,Rain,Light Rain,210,2012-12-25 00:25:00
1:55 AM,48.2,46.4,93,29.42,4.3,SSW,6.9,-,N/A,Rain,Light Rain,210,2012-12-25 00:55:00
2:25 AM,48.2,46.4,93,29.42,4.3,SSW,4.6,-,N/A,Rain,Light Rain,210,2012-12-25 01:25:00
2:55 AM,48.2,48.2,100,29.42,3.1,SW,8.1,-,N/A,Rain,Rain,220,2012-12-25 01:55:00
3:25 AM,48.2,46.4,93,29.39,3.1,South,5.8,-,N/A,Rain,Rain,190,2012-12-25 02:25:00
3:55 AM,48.2,46.4,93,29.39,3.1,SW,5.8,-,N/A,Rain,Rain,220,2012-12-25 02:55:00
4:00 AM,47,47,100,29.40,3,SW,4.5,,,Rain,Rain,220,2012-12-25 03:00:00
4:25 AM,46.4,46.4,100,29.39,5.0,SW,4.6,-,N/A,Rain,Light Rain,230,2012-12-25 03:25:00
4:55 AM,48.2,46.4,93,29.39,3.7,WSW,6.9,-,N/A,Rain,Rain,240,2012-12-25 03:55:00
5:25 AM,46.4,46.4,100,29.39,6.2,WSW,13.8,-,N/A,Rain,Light Rain,250,2012-12-25 04:25:00
5:55 AM,46.4,44.6,93,29.39,6.2,West,15.0,-,N/A,Rain,Light Rain,270,2012-12-25 04:55:00
6:25 AM,46.4,44.6,93,29.39,6.2,West,12.7,-,N/A,Rain,Light Rain,270,2012-12-25 05:25:00
6:55 AM,44.6,42.8,93,29.42,6.2,West,11.5,-,N/A,Rain,Light Rain,270,2012-12-25 05:55:00
7:00 AM,45,43,91,29.42,11,West,11.2,,,Rain,Heavy Rain,270,2012-12-25 06:00:00
7:25 AM,44.6,42.8,93,29.42,6.2,SW,9.2,-,N/A,Rain,Light Rain,230,2012-12-25 06:25:00
7:55 AM,44.6,42.8,93,29.42,6.2,SSW,9.2,-,N/A,,Partly Cloudy,210,2012-12-25 06:55:00
8:25 AM,44.6,42.8,93,29.42,-9999.0,SSW,12.7,-,N/A,,Clear,200,2012-12-25 07:25:00
8:55 AM,44.6,42.8,93,29.42,-9999.0,SSW,12.7,-,N/A,,Clear,200,2012-12-25 07:55:00
9:25 AM,44.6,42.8,93,29.44,6.2,SSW,11.5,-,N/A,,Partly Cloudy,200,2012-12-25 08:25:00
9:55 AM,44.6,42.8,93,29.44,6.2,South,11.5,-,N/A,,Scattered Clouds,190,2012-12-25 08:55:00
10:00 AM,45,43,92,29.46,22,SSW,13.4,,,,Partly Cloudy,200,2012-12-25 09:00:00
10:25 AM,46.4,42.8,87,29.44,6.2,SSW,12.7,-,N/A,,Partly Cloudy,200,2012-12-25 09:25:00
10:55 AM,46.4,42.8,87,29.44,6.2,South,10.4,-,N/A,,Partly Cloudy,180,2012-12-25 09:55:00
11:25 AM,46.4,44.6,93,29.44,6.2,South,15.0,-,N/A,,Scattered Clouds,190,2012-12-25 10:25:00
11:55 AM,46.4,44.6,93,29.44,6.2,South,13.8,-,N/A,,Scattered Clouds,180,2012-12-25 10:55:00
12:25 PM,48.2,44.6,87,29.42,6.2,South,15.0,-,N/A,,Mostly Cloudy,190,2012-12-25 11:25:00
12:55 PM,48.2,46.4,93,29.42,6.2,South,12.7,-,N/A,,Mostly Cloudy,190,2012-12-25 11:55:00
1:00 PM,48,46,88,29.42,28,South,13.4,,,,Partly Cloudy,190,2012-12-25 12:00:00
1:25 PM,50.0,46.4,87,29.39,6.2,South,16.1,-,N/A,,Scattered Clouds,190,2012-12-25 12:25:00
1:55 PM,50.0,44.6,82,29.39,6.2,SSW,18.4,-,N/A,,Partly Cloudy,200,2012-12-25 12:55:00
2:25 PM,50.0,44.6,82,29.36,6.2,SSW,19.6,-,N/A,,Mostly Cloudy,200,2012-12-25 13:25:00
2:55 PM,48.2,44.6,87,29.36,5.0,SSW,23.0,-,N/A,Rain,Rain Showers,200,2012-12-25 13:55:00
3:25 PM,48.2,44.6,87,29.36,6.2,South,20.7,-,N/A,Rain,Light Rain Showers,190,2012-12-25 14:25:00
3:55 PM,50.0,42.8,76,29.33,6.2,SSW,21.9,-,N/A,,Mostly Cloudy,200,2012-12-25 14:55:00
4:00 PM,49,44,75,29.35,25,SSW,22.4,,,Rain,Light Rain Showers,200,2012-12-25 15:00:00
4:25 PM,48.2,42.8,82,29.33,6.2,SSW,20.7,-,N/A,,Scattered Clouds,200,2012-12-25 15:25:00
4:55 PM,48.2,42.8,82,29.33,6.2,SSW,19.6,-,N/A,Rain,Light Rain Showers,200,2012-12-25 15:55:00
5:25 PM,48.2,44.6,87,29.30,6.2,SSW,23.0,-,N/A,Rain,Light Rain Showers,200,2012-12-25 16:25:00
5:55 PM,48.2,44.6,87,29.33,6.2,SW,28.8,43.7,N/A,Rain,Light Rain Showers,230,2012-12-25 16:55:00
6:25 PM,48.2,44.6,87,29.33,6.2,WSW,28.8,40.3,N/A,,Mostly Cloudy,240,2012-12-25 17:25:00
6:55 PM,48.2,41.0,76,29.36,6.2,WSW,26.5,-,N/A,,Mostly Cloudy,240,2012-12-25 17:55:00
7:00 PM,48,41,68,29.39,17,WSW,26.8,,,Rain,Rain,240,2012-12-25 18:00:00
7:25 PM,48.2,42.8,82,29.39,6.2,WSW,25.3,-,N/A,,Mostly Cloudy,240,2012-12-25 18:25:00
7:55 PM,48.2,42.8,82,29.42,6.2,WSW,24.2,-,N/A,Rain,Light Rain Showers,240,2012-12-25 18:55:00
8:25 PM,48.2,42.8,82,29.42,6.2,WSW,21.9,-,N/A,,Mostly Cloudy,250,2012-12-25 19:25:00
8:55 PM,48.2,42.8,82,29.42,6.2,WSW,21.9,-,N/A,,Mostly Cloudy,240,2012-12-25 19:55:00
9:25 PM,48.2,44.6,87,29.44,6.2,WSW,19.6,-,N/A,,Mostly Cloudy,240,2012-12-25 20:25:00
9:55 PM,48.2,44.6,87,29.44,6.2,WSW,19.6,-,N/A,Rain,Light Rain Showers,240,2012-12-25 20:55:00
10:00 PM,47,43,82,29.48,8,WSW,17.9,,,Rain,Light Rain Showers,240,2012-12-25 21:00:00
10:25 PM,46.4,42.8,87,29.47,6.2,WSW,19.6,-,N/A,,Mostly Cloudy,240,2012-12-25 21:25:00
10:55 PM,46.4,42.8,87,29.47,6.2,WSW,17.3,-,N/A,,Mostly Cloudy,240,2012-12-25 21:55:00
11:25 PM,48.2,42.8,82,29.50,6.2,WSW,18.4,-,N/A,,Mostly Cloudy,240,2012-12-25 22:25:00
11:55 PM,46.4,42.8,87,29.50,6.2,WSW,17.3,-,N/A,,Scattered Clouds,250,2012-12-25 22:55:00